Location: Bannatyne
(13.0833°N, 59.5333°W)
Time: 01:09:47
(UTC+00:00)

Explorer 7 - Pass Details

Date: 02 February 2020
Orbit: 485 x 679 km, 50.3° (Epoch: 27 February)

Event Time Altitude Azimuth Distance (km) Brightness Sun altitude
Rises 21:16:05 0° 226° (SW) 2,848 11.8 9.2°
Reaches altitude 10° 21:18:29 10° 231° (SW) 1,911 11.3 8.6°
Maximum altitude 21:22:44 54° 308° (NW) 682 7.7 7.6°
Drops below altitude 10° 21:26:45 10° 27° (NNE) 1,792 9.0 6.7°
Sets 21:28:56 0° 32° (NNE) 2,651 9.8 6.2°
